JZA650 CYVR-KPDX

Flight info

Callsign JZA650
Flight time 0h 38m
Altitude 27000
Route YVR DCT SEA DCT BUWZO KRATR3
Aircraft B462/M-SDFGIRWY/LB1

Departure

Time 2026-05-07 10:41
Airport Vancouver International Airport (CYVR)

Arrival

Time 2026-05-07 11:20
Airport Portland International Airport (KPDX)
Time Latitude Longitude Altitude Speed Heading
2026-05-07 10:12 49.19662 -123.17596 15 ft 0 kts 333°
2026-05-07 10:28 49.19663 -123.17597 15 ft 0 kts 333°
2026-05-07 10:28 49.19658 -123.17593 15 ft 2 kts 333°
2026-05-07 10:28 49.19644 -123.17582 15 ft 2 kts 333°
2026-05-07 10:29 49.19631 -123.17571 15 ft 2 kts 333°
2026-05-07 10:29 49.19617 -123.17561 15 ft 2 kts 333°
2026-05-07 10:29 49.19607 -123.17553 15 ft 1 kts 338°
2026-05-07 10:30 49.19601 -123.17551 15 ft 3 kts 341°
2026-05-07 10:30 49.19626 -123.17564 15 ft 5 kts 346°
2026-05-07 10:30 49.19654 -123.17572 15 ft 0 kts 351°
2026-05-07 10:31 49.19657 -123.17573 15 ft 0 kts 351°
2026-05-07 10:31 49.19659 -123.17573 15 ft 0 kts 351°
2026-05-07 10:31 49.19660 -123.17574 15 ft 0 kts 352°
2026-05-07 10:31 49.19647 -123.17570 15 ft 0 kts 354°
2026-05-07 10:32 49.19649 -123.17569 15 ft 0 kts 35°
2026-05-07 10:32 49.19651 -123.17558 15 ft 2 kts 87°
2026-05-07 10:32 49.19651 -123.17522 15 ft 4 kts 93°
2026-05-07 10:32 49.19650 -123.17460 15 ft 6 kts 88°
2026-05-07 10:33 49.19655 -123.17372 15 ft 9 kts 86°
2026-05-07 10:33 49.19646 -123.17266 15 ft 10 kts 97°
2026-05-07 10:33 49.19696 -123.17184 15 ft 12 kts 21°
2026-05-07 10:33 49.19776 -123.17191 15 ft 12 kts 355°
2026-05-07 10:34 49.19865 -123.17188 15 ft 9 kts
2026-05-07 10:34 49.19929 -123.17150 15 ft 10 kts
2026-05-07 10:34 49.19971 -123.17239 15 ft 12 kts 291°
2026-05-07 10:34 49.19994 -123.17377 15 ft 14 kts 277°
2026-05-07 10:35 49.20015 -123.17542 15 ft 17 kts 285°
2026-05-07 10:35 49.20031 -123.17690 16 ft 18 kts 279°
2026-05-07 10:35 49.20052 -123.17877 16 ft 20 kts 280°
2026-05-07 10:35 49.20077 -123.18092 18 ft 21 kts 281°
2026-05-07 10:36 49.20099 -123.18330 17 ft 23 kts 282°
2026-05-07 10:36 49.20130 -123.18586 18 ft 25 kts 277°
2026-05-07 10:36 49.20162 -123.18842 18 ft 22 kts 278°
2026-05-07 10:36 49.20176 -123.18994 18 ft 13 kts 242°
2026-05-07 10:37 49.20082 -123.19044 17 ft 16 kts 190°
2026-05-07 10:37 49.19948 -123.19081 15 ft 21 kts 189°
2026-05-07 10:37 49.19790 -123.19122 15 ft 25 kts 189°
2026-05-07 10:37 49.19606 -123.19169 15 ft 28 kts 191°
2026-05-07 10:38 49.19410 -123.19225 15 ft 28 kts 191°
2026-05-07 10:38 49.19313 -123.19327 15 ft 16 kts 263°
2026-05-07 10:38 49.19298 -123.19517 15 ft 19 kts 261°
2026-05-07 10:38 49.19264 -123.19732 17 ft 21 kts 227°
2026-05-07 10:39 49.19154 -123.19847 18 ft 19 kts 198°
2026-05-07 10:39 49.19025 -123.19795 18 ft 20 kts 137°
2026-05-07 10:39 49.18927 -123.19622 15 ft 22 kts 129°
2026-05-07 10:39 49.18856 -123.19432 15 ft 18 kts 107°
2026-05-07 10:40 49.18847 -123.19384 15 ft 1 kts 98°
2026-05-07 10:40 49.18837 -123.19287 15 ft 23 kts 100°
2026-05-07 10:40 49.18792 -123.18880 15 ft 53 kts 100°
2026-05-07 10:40 49.18712 -123.18169 19 ft 86 kts 99°
2026-05-07 10:41 49.18586 -123.17062 16 ft 122 kts 100°
2026-05-07 10:41 49.18424 -123.15718 173 ft 129 kts 100°
2026-05-07 10:41 49.18242 -123.14317 391 ft 131 kts 101°
2026-05-07 10:41 49.18053 -123.13003 715 ft 125 kts 100°
2026-05-07 10:42 49.17769 -123.11809 1012 ft 117 kts 135°
2026-05-07 10:42 49.16989 -123.11352 1179 ft 140 kts 178°
2026-05-07 10:42 49.16006 -123.11465 1852 ft 150 kts 191°
2026-05-07 10:42 49.14934 -123.11838 2450 ft 169 kts 194°
2026-05-07 10:43 49.13732 -123.12296 3028 ft 191 kts 195°
2026-05-07 10:43 49.12363 -123.12859 3602 ft 220 kts 197°
2026-05-07 10:43 49.10804 -123.13535 4194 ft 250 kts 197°
2026-05-07 10:43 49.09047 -123.14320 4871 ft 274 kts 197°
2026-05-07 10:44 49.07180 -123.14670 6154 ft 271 kts 171°
2026-05-07 10:44 49.05388 -123.13803 7186 ft 276 kts 157°
2026-05-07 10:44 49.03586 -123.12749 8090 ft 285 kts 160°
2026-05-07 10:44 49.01703 -123.11741 9045 ft 291 kts 161°
2026-05-07 10:45 48.99766 -123.10709 9880 ft 300 kts 161°
2026-05-07 10:45 48.97811 -123.09673 10759 ft 305 kts 161°
2026-05-07 10:45 48.95791 -123.08607 11688 ft 307 kts 161°
2026-05-07 10:45 48.93762 -123.07540 12481 ft 313 kts 161°
2026-05-07 10:46 48.91663 -123.06436 13182 ft 321 kts 161°
2026-05-07 10:46 48.89479 -123.05290 13705 ft 335 kts 161°
2026-05-07 10:46 48.87230 -123.04111 14247 ft 346 kts 162°
2026-05-07 10:46 48.85047 -123.02966 14702 ft 358 kts 162°
2026-05-07 10:47 48.82655 -123.01714 15221 ft 367 kts 162°
2026-05-07 10:47 48.80204 -123.00432 15781 ft 374 kts 162°
2026-05-07 10:47 48.77704 -122.99124 16469 ft 377 kts 162°
2026-05-07 10:47 48.75209 -122.97823 17015 ft 382 kts 162°
2026-05-07 10:48 48.72686 -122.96507 17609 ft 386 kts 163°
2026-05-07 10:48 48.70162 -122.95194 18140 ft 390 kts 163°
2026-05-07 10:48 48.67564 -122.93843 18703 ft 394 kts 163°
2026-05-07 10:48 48.64967 -122.92493 19228 ft 398 kts 163°
2026-05-07 10:49 48.62314 -122.91116 19710 ft 403 kts 163°
2026-05-07 10:49 48.59656 -122.89738 20210 ft 406 kts 163°
2026-05-07 10:49 48.56971 -122.88346 20694 ft 409 kts 164°
2026-05-07 10:49 48.54271 -122.86949 21147 ft 413 kts 163°
2026-05-07 10:50 48.51579 -122.85558 21636 ft 415 kts 164°
2026-05-07 10:50 48.48809 -122.84128 22040 ft 419 kts 164°
2026-05-07 10:50 48.46054 -122.82707 22488 ft 421 kts 164°
2026-05-07 10:50 48.43258 -122.81267 22887 ft 425 kts 164°
2026-05-07 10:51 48.40469 -122.79832 23277 ft 428 kts 164°
2026-05-07 10:51 48.37641 -122.78378 23679 ft 430 kts 164°
2026-05-07 10:51 48.34813 -122.76927 24006 ft 435 kts 164°
2026-05-07 10:51 48.31937 -122.75452 24452 ft 435 kts 165°
2026-05-07 10:52 48.29057 -122.73978 24797 ft 439 kts 164°
2026-05-07 10:52 48.26192 -122.72513 25151 ft 442 kts 164°
2026-05-07 10:52 48.23280 -122.71024 25492 ft 445 kts 165°
2026-05-07 10:52 48.20314 -122.69511 25877 ft 446 kts 165°
2026-05-07 10:53 48.17379 -122.68015 26235 ft 449 kts 165°
2026-05-07 10:53 48.14417 -122.66509 26545 ft 452 kts 165°
2026-05-07 10:53 48.11417 -122.64983 26879 ft 454 kts 165°
2026-05-07 10:53 48.08392 -122.63448 27118 ft 459 kts 165°
2026-05-07 10:54 48.05367 -122.61917 27166 ft 454 kts 165°
2026-05-07 10:54 48.02385 -122.60407 27163 ft 447 kts 165°
2026-05-07 10:54 47.99443 -122.58918 27155 ft 444 kts 165°
2026-05-07 10:54 47.96529 -122.57444 27160 ft 444 kts 165°
2026-05-07 10:55 47.93597 -122.55963 27164 ft 444 kts 165°
2026-05-07 10:55 47.90635 -122.54470 27165 ft 445 kts 165°
2026-05-07 10:55 47.87672 -122.52978 27164 ft 445 kts 165°
2026-05-07 10:55 47.84743 -122.51505 27172 ft 444 kts 165°
2026-05-07 10:56 47.81823 -122.50038 27176 ft 445 kts 165°
2026-05-07 10:56 47.78873 -122.48559 27178 ft 444 kts 165°
2026-05-07 10:56 47.75922 -122.47079 27181 ft 445 kts 165°
2026-05-07 10:56 47.73010 -122.45623 27181 ft 445 kts 165°
2026-05-07 10:57 47.70080 -122.44158 27183 ft 445 kts 165°
2026-05-07 10:57 47.67147 -122.42693 27187 ft 445 kts 165°
2026-05-07 10:57 47.64206 -122.41227 27187 ft 445 kts 165°
2026-05-07 10:57 47.61261 -122.39761 27190 ft 445 kts 165°
2026-05-07 10:58 47.58321 -122.38297 27194 ft 445 kts 165°
2026-05-07 10:58 47.55376 -122.36835 27192 ft 445 kts 165°
2026-05-07 10:58 47.52461 -122.35387 27194 ft 445 kts 165°
2026-05-07 10:58 47.49508 -122.33923 27190 ft 445 kts 166°
2026-05-07 10:59 47.46575 -122.32471 27190 ft 445 kts 166°
2026-05-07 10:59 47.43623 -122.31138 27192 ft 440 kts 174°
2026-05-07 10:59 47.40587 -122.30820 27199 ft 430 kts 187°
2026-05-07 10:59 47.37611 -122.30906 27194 ft 430 kts 186°
2026-05-07 11:00 47.34609 -122.30933 27192 ft 431 kts 186°
2026-05-07 11:00 47.31621 -122.30945 27194 ft 430 kts 186°
2026-05-07 11:00 47.28634 -122.30952 27190 ft 430 kts 186°
2026-05-07 11:00 47.25619 -122.30956 27190 ft 430 kts 186°
2026-05-07 11:01 47.22615 -122.30959 27192 ft 430 kts 185°
2026-05-07 11:01 47.19608 -122.30960 27194 ft 430 kts 186°
2026-05-07 11:01 47.16649 -122.30960 27192 ft 430 kts 185°
2026-05-07 11:01 47.13652 -122.30961 27194 ft 430 kts 186°
2026-05-07 11:02 47.10643 -122.30961 27194 ft 430 kts 185°
2026-05-07 11:02 47.07679 -122.30961 27195 ft 430 kts 186°
2026-05-07 11:02 47.04649 -122.30961 27193 ft 429 kts 185°
2026-05-07 11:02 47.01666 -122.30961 27191 ft 429 kts 186°
2026-05-07 11:03 46.98690 -122.30961 27192 ft 429 kts 186°
2026-05-07 11:03 46.95714 -122.30961 27191 ft 429 kts 186°
2026-05-07 11:03 46.92735 -122.31119 27186 ft 428 kts 187°
2026-05-07 11:03 46.89738 -122.31084 27181 ft 430 kts 184°
2026-05-07 11:04 46.86739 -122.31020 27170 ft 429 kts 185°
2026-05-07 11:04 46.83789 -122.30994 27163 ft 429 kts 185°
2026-05-07 11:04 46.80793 -122.30979 27159 ft 429 kts 185°
2026-05-07 11:04 46.77785 -122.30970 27157 ft 428 kts 185°
2026-05-07 11:05 46.74827 -122.30965 27151 ft 428 kts 186°
2026-05-07 11:05 46.71839 -122.30963 27147 ft 428 kts 186°
2026-05-07 11:05 46.68882 -122.30962 27143 ft 428 kts 186°
2026-05-07 11:05 46.65880 -122.30961 27142 ft 428 kts 185°
2026-05-07 11:06 46.62933 -122.30961 27142 ft 428 kts 186°
2026-05-07 11:06 46.59942 -122.30960 27139 ft 427 kts 185°
2026-05-07 11:06 46.56965 -122.30960 27141 ft 427 kts 185°
2026-05-07 11:06 46.54010 -122.30960 27142 ft 427 kts 185°
2026-05-07 11:07 46.51027 -122.30960 27142 ft 427 kts 185°
2026-05-07 11:07 46.48087 -122.30960 27139 ft 427 kts 185°
2026-05-07 11:07 46.45106 -122.30960 27138 ft 427 kts 185°
2026-05-07 11:07 46.42131 -122.30960 27137 ft 427 kts 185°
2026-05-07 11:08 46.39144 -122.30960 27086 ft 428 kts 185°
2026-05-07 11:08 46.36098 -122.30968 25395 ft 453 kts 185°
2026-05-07 11:08 46.33020 -122.30956 25174 ft 441 kts 185°
2026-05-07 11:08 46.29944 -122.31046 24755 ft 439 kts 188°
2026-05-07 11:09 46.26996 -122.31375 24327 ft 419 kts 190°
2026-05-07 11:09 46.24125 -122.31708 23909 ft 408 kts 190°
2026-05-07 11:09 46.21352 -122.32026 23496 ft 397 kts 190°
2026-05-07 11:09 46.18627 -122.32342 23081 ft 388 kts 191°
2026-05-07 11:10 46.15971 -122.32650 22674 ft 380 kts 191°
2026-05-07 11:10 46.13326 -122.32958 22262 ft 373 kts 191°
2026-05-07 11:10 46.10790 -122.33252 21860 ft 367 kts 191°
2026-05-07 11:10 46.08232 -122.33549 21450 ft 362 kts 191°
2026-05-07 11:11 46.05733 -122.33839 21040 ft 357 kts 191°
2026-05-07 11:11 46.03292 -122.34124 20549 ft 356 kts 191°
2026-05-07 11:11 46.00824 -122.34415 20020 ft 356 kts 191°
2026-05-07 11:11 45.98352 -122.34702 19493 ft 356 kts 191°
2026-05-07 11:12 45.95915 -122.34984 18984 ft 355 kts 191°
2026-05-07 11:12 45.93452 -122.35268 18459 ft 355 kts 191°
2026-05-07 11:12 45.90967 -122.35555 17924 ft 354 kts 190°
2026-05-07 11:12 45.88502 -122.35839 17388 ft 354 kts 190°
2026-05-07 11:13 45.86065 -122.36120 16865 ft 353 kts 190°
2026-05-07 11:13 45.83636 -122.36398 16349 ft 352 kts 190°
2026-05-07 11:13 45.81193 -122.36679 15810 ft 352 kts 190°
2026-05-07 11:13 45.78746 -122.36961 15112 ft 356 kts 189°
2026-05-07 11:14 45.76315 -122.37238 14316 ft 347 kts 189°
2026-05-07 11:14 45.73980 -122.37499 13390 ft 327 kts 189°
2026-05-07 11:14 45.71800 -122.37748 12440 ft 314 kts 189°
2026-05-07 11:14 45.69660 -122.37995 10889 ft 321 kts 189°
2026-05-07 11:15 45.67474 -122.38253 9202 ft 322 kts 189°
2026-05-07 11:15 45.65272 -122.38506 7467 ft 318 kts 188°
2026-05-07 11:15 45.63138 -122.38748 5726 ft 310 kts 187°
2026-05-07 11:15 45.61051 -122.38974 3978 ft 303 kts 183°
2026-05-07 11:16 45.59067 -122.39201 3125 ft 265 kts 199°
2026-05-07 11:16 45.57652 -122.40372 3130 ft 217 kts 227°
2026-05-07 11:16 45.56837 -122.42021 2788 ft 197 kts 248°
2026-05-07 11:16 45.56479 -122.43837 2527 ft 185 kts 266°
2026-05-07 11:17 45.56407 -122.45559 2442 ft 159 kts 268°
2026-05-07 11:17 45.56330 -122.47047 2090 ft 142 kts 269°
2026-05-07 11:17 45.56275 -122.48391 1649 ft 135 kts 270°
2026-05-07 11:17 45.56281 -122.49720 1134 ft 134 kts 277°
2026-05-07 11:18 45.56420 -122.50973 790 ft 124 kts 287°
2026-05-07 11:18 45.56684 -122.52109 556 ft 115 kts 293°
2026-05-07 11:18 45.56991 -122.53147 435 ft 114 kts 297°
2026-05-07 11:18 45.57349 -122.54178 351 ft 114 kts 300°
2026-05-07 11:19 45.57730 -122.55160 225 ft 111 kts 301°
2026-05-07 11:19 45.58154 -122.56177 202 ft 118 kts 302°
2026-05-07 11:19 45.58533 -122.57124 43 ft 104 kts 300°
2026-05-07 11:19 45.58850 -122.57938 23 ft 83 kts 296°
2026-05-07 11:20 45.59018 -122.58416 23 ft 28 kts 280°
2026-05-07 11:20 45.59030 -122.58624 23 ft 15 kts 264°
2026-05-07 11:20 45.59029 -122.58702 23 ft 7 kts 272°
2026-05-07 11:20 45.59032 -122.58785 23 ft 8 kts 271°
2026-05-07 11:21 45.59012 -122.58862 23 ft 8 kts 189°
2026-05-07 11:21 45.58970 -122.58804 23 ft 9 kts 116°
2026-05-07 11:21 45.58937 -122.58699 23 ft 13 kts 119°
2026-05-07 11:21 45.58905 -122.58625 23 ft 6 kts 132°
2026-05-07 11:22 45.58875 -122.58659 23 ft 7 kts 265°
2026-05-07 11:22 45.58865 -122.58709 23 ft 1 kts 233°
2026-05-07 11:22 45.58859 -122.58720 23 ft 0 kts 232°